ITY94 LSZH-LIRN

Flight info

Callsign ITY94
Flight time 1h 10m
Altitude 39000
Route VEBIT T53 GERSA N850 SOSON DCT ODINA DCT LOMED DCT EVULI DCT ERIKA
Aircraft A20N/M-SDE2E3FGHIRWXY/LB1

Departure

Time 2026-05-07 15:29
Airport Zürich Airport (LSZH)

Arrival

Time 2026-05-07 16:40
Airport Naples International Airport (LIRN)
Time Latitude Longitude Altitude Speed Heading
2026-05-07 15:09 47.45425 8.55803 1414 ft 0 kts 186°
2026-05-07 15:20 47.45444 8.55806 1416 ft 4 kts 182°
2026-05-07 15:20 47.45470 8.55806 1411 ft 3 kts 172°
2026-05-07 15:20 47.45496 8.55796 1413 ft 4 kts 143°
2026-05-07 15:20 47.45507 8.55776 1412 ft 1 kts 96°
2026-05-07 15:22 47.45506 8.55790 1413 ft 1 kts 88°
2026-05-07 15:23 47.45513 8.55809 1410 ft 3 kts 47°
2026-05-07 15:23 47.45536 8.55833 1411 ft 4 kts 28°
2026-05-07 15:23 47.45575 8.55843 1411 ft 8 kts
2026-05-07 15:23 47.45629 8.55877 1416 ft 8 kts 61°
2026-05-07 15:24 47.45633 8.55951 1414 ft 9 kts 96°
2026-05-07 15:24 47.45625 8.56081 1414 ft 16 kts 96°
2026-05-07 15:24 47.45609 8.56268 1416 ft 21 kts 97°
2026-05-07 15:24 47.45593 8.56496 1418 ft 23 kts 95°
2026-05-07 15:25 47.45578 8.56717 1422 ft 20 kts 97°
2026-05-07 15:25 47.45569 8.56839 1423 ft 3 kts 95°
2026-05-07 15:25 47.45567 8.56860 1423 ft 0 kts 95°
2026-05-07 15:26 47.45567 8.56862 1423 ft 1 kts 96°
2026-05-07 15:26 47.45565 8.56894 1423 ft 6 kts 95°
2026-05-07 15:26 47.45569 8.56968 1424 ft 7 kts 71°
2026-05-07 15:26 47.45579 8.56994 1425 ft 0 kts 47°
2026-05-07 15:27 47.45580 8.56995 1425 ft 0 kts 47°
2026-05-07 15:27 47.45584 8.56999 1425 ft 3 kts 33°
2026-05-07 15:27 47.45619 8.57015 1427 ft 9 kts 14°
2026-05-07 15:28 47.45664 8.56973 1427 ft 9 kts 288°
2026-05-07 15:28 47.45665 8.56962 1427 ft 0 kts 277°
2026-05-07 15:29 47.45685 8.56702 1421 ft 60 kts 276°
2026-05-07 15:29 47.45753 8.55755 1410 ft 125 kts 276°
2026-05-07 15:29 47.45858 8.54273 1670 ft 151 kts 275°
2026-05-07 15:29 47.45873 8.52700 2487 ft 155 kts 271°
2026-05-07 15:30 47.45877 8.51750 3025 ft 165 kts 272°
2026-05-07 15:30 47.45879 8.50804 3320 ft 181 kts 270°
2026-05-07 15:30 47.45811 8.49513 3579 ft 199 kts 261°
2026-05-07 15:30 47.45487 8.48143 3869 ft 213 kts 243°
2026-05-07 15:31 47.44701 8.46140 4255 ft 240 kts 243°
2026-05-07 15:31 47.43844 8.43893 4913 ft 257 kts 242°
2026-05-07 15:31 47.42652 8.40836 6272 ft 260 kts 241°
2026-05-07 15:31 47.41739 8.38508 7188 ft 264 kts 241°
2026-05-07 15:32 47.41113 8.36913 7829 ft 266 kts 240°
2026-05-07 15:32 47.40194 8.34569 8785 ft 268 kts 240°
2026-05-07 15:32 47.39259 8.32182 9829 ft 270 kts 240°
2026-05-07 15:32 47.38155 8.29888 10579 ft 282 kts 229°
2026-05-07 15:33 47.36549 8.28036 10923 ft 308 kts 207°
2026-05-07 15:33 47.34382 8.27314 11269 ft 337 kts 181°
2026-05-07 15:33 47.32025 8.28132 11626 ft 364 kts 157°
2026-05-07 15:33 47.29855 8.30268 12041 ft 386 kts 141°
2026-05-07 15:34 47.27902 8.33081 12632 ft 397 kts 135°
2026-05-07 15:34 47.26055 8.36153 13427 ft 403 kts 133°
2026-05-07 15:34 47.24205 8.39295 14183 ft 408 kts 133°
2026-05-07 15:34 47.22303 8.42437 14902 ft 413 kts 134°
2026-05-07 15:35 47.20340 8.45552 15637 ft 417 kts 135°
2026-05-07 15:35 47.18214 8.48474 16336 ft 420 kts 144°
2026-05-07 15:35 47.15700 8.50656 17010 ft 421 kts 159°
2026-05-07 15:35 47.12888 8.51882 17694 ft 423 kts 169°
2026-05-07 15:36 47.10010 8.52611 18319 ft 427 kts 174°
2026-05-07 15:36 47.07043 8.53095 18911 ft 431 kts 176°
2026-05-07 15:36 47.04036 8.53463 19491 ft 435 kts 177°
2026-05-07 15:36 47.01006 8.53804 20068 ft 438 kts 177°
2026-05-07 15:37 46.97956 8.54160 20641 ft 441 kts 177°
2026-05-07 15:37 46.94876 8.54547 21216 ft 445 kts 176°
2026-05-07 15:37 46.91781 8.54960 21818 ft 448 kts 176°
2026-05-07 15:37 46.88698 8.55391 22362 ft 452 kts 176°
2026-05-07 15:38 46.85550 8.55839 22923 ft 455 kts 176°
2026-05-07 15:38 46.82384 8.56295 23498 ft 458 kts 176°
2026-05-07 15:38 46.79194 8.56757 23891 ft 462 kts 176°
2026-05-07 15:38 46.75982 8.57222 24304 ft 466 kts 176°
2026-05-07 15:39 46.72739 8.57688 24698 ft 470 kts 176°
2026-05-07 15:39 46.69479 8.58155 25167 ft 471 kts 177°
2026-05-07 15:39 46.66218 8.58621 25748 ft 470 kts 177°
2026-05-07 15:39 46.62980 8.59084 26421 ft 466 kts 178°
2026-05-07 15:40 46.59747 8.59546 26960 ft 466 kts 178°
2026-05-07 15:40 46.56516 8.60005 27496 ft 466 kts 178°
2026-05-07 15:40 46.53327 8.60457 28029 ft 465 kts 179°
2026-05-07 15:40 46.50104 8.60914 28549 ft 465 kts 179°
2026-05-07 15:41 46.46883 8.61370 28988 ft 464 kts 179°
2026-05-07 15:41 46.43667 8.61820 29455 ft 464 kts 179°
2026-05-07 15:41 46.40454 8.62272 29955 ft 463 kts 179°
2026-05-07 15:41 46.37245 8.62727 30361 ft 462 kts 180°
2026-05-07 15:42 46.34058 8.63186 30779 ft 459 kts 179°
2026-05-07 15:42 46.30876 8.63636 31145 ft 460 kts 180°
2026-05-07 15:42 46.27691 8.64082 31504 ft 459 kts 180°
2026-05-07 15:42 46.24512 8.64520 31901 ft 458 kts 180°
2026-05-07 15:43 46.21385 8.64959 32315 ft 455 kts 180°
2026-05-07 15:43 46.18232 8.65403 32733 ft 454 kts 180°
2026-05-07 15:43 46.15097 8.65965 33161 ft 456 kts 175°
2026-05-07 15:43 46.11996 8.67087 33519 ft 462 kts 167°
2026-05-07 15:44 46.09012 8.68900 33745 ft 469 kts 157°
2026-05-07 15:44 46.06227 8.71450 33983 ft 477 kts 149°
2026-05-07 15:44 46.03580 8.74344 34277 ft 478 kts 147°
2026-05-07 15:44 46.00994 8.77360 34573 ft 478 kts 146°
2026-05-07 15:45 45.98475 8.80377 34862 ft 478 kts 145°
2026-05-07 15:45 45.95912 8.83460 34953 ft 481 kts 145°
2026-05-07 15:45 45.90780 8.89581 34964 ft 478 kts 146°
2026-05-07 15:46 45.83047 8.98649 34961 ft 478 kts 146°
2026-05-07 15:47 45.77886 9.04654 34955 ft 477 kts 146°
2026-05-07 15:47 45.72721 9.10649 34954 ft 478 kts 147°
2026-05-07 15:48 45.67553 9.16636 34957 ft 479 kts 147°
2026-05-07 15:48 45.62405 9.22587 34961 ft 479 kts 147°
2026-05-07 15:49 45.57193 9.28598 34960 ft 478 kts 147°
2026-05-07 15:49 45.52059 9.34506 34966 ft 476 kts 147°
2026-05-07 15:50 45.46902 9.40423 35038 ft 476 kts 147°
2026-05-07 15:50 45.41732 9.46340 35030 ft 476 kts 147°
2026-05-07 15:51 45.36562 9.52244 35006 ft 476 kts 147°
2026-05-07 15:51 45.31404 9.58122 34991 ft 474 kts 147°
2026-05-07 15:52 45.26251 9.63978 34965 ft 474 kts 147°
2026-05-07 15:52 45.21132 9.69781 34945 ft 474 kts 148°
2026-05-07 15:53 45.15962 9.75627 34922 ft 475 kts 148°
2026-05-07 15:53 45.10804 9.81449 34948 ft 474 kts 148°
2026-05-07 15:54 45.05651 9.87252 34949 ft 473 kts 148°
2026-05-07 15:54 45.00514 9.93020 34951 ft 473 kts 148°
2026-05-07 15:55 44.95354 9.98801 34947 ft 473 kts 148°
2026-05-07 15:55 44.90187 10.04575 34962 ft 473 kts 148°
2026-05-07 15:56 44.85018 10.10339 34972 ft 473 kts 148°
2026-05-07 15:56 44.79883 10.16053 34967 ft 473 kts 148°
2026-05-07 15:57 44.74706 10.21799 34971 ft 473 kts 148°
2026-05-07 15:57 44.69533 10.27527 34963 ft 472 kts 148°
2026-05-07 15:58 44.64378 10.33224 35029 ft 471 kts 148°
2026-05-07 15:58 44.59223 10.38904 35040 ft 471 kts 148°
2026-05-07 15:59 44.54060 10.44581 35045 ft 471 kts 148°
2026-05-07 15:59 44.48927 10.50212 35058 ft 471 kts 149°
2026-05-07 16:00 44.43762 10.55866 35058 ft 470 kts 149°
2026-05-07 16:00 44.38606 10.61495 35057 ft 470 kts 149°
2026-05-07 16:01 44.33431 10.67134 35080 ft 470 kts 149°
2026-05-07 16:01 44.28305 10.72707 35071 ft 470 kts 149°
2026-05-07 16:02 44.23147 10.78301 35079 ft 470 kts 149°
2026-05-07 16:02 44.17976 10.83898 35072 ft 470 kts 149°
2026-05-07 16:03 44.12803 10.89479 35058 ft 470 kts 149°
2026-05-07 16:03 44.07628 10.95048 35024 ft 470 kts 149°
2026-05-07 16:04 44.02518 11.00734 35014 ft 473 kts 145°
2026-05-07 16:04 43.97671 11.06924 34984 ft 474 kts 143°
2026-05-07 16:05 43.92864 11.13226 34973 ft 475 kts 143°
2026-05-07 16:05 43.88093 11.19501 34967 ft 475 kts 143°
2026-05-07 16:06 43.83291 11.25787 34986 ft 475 kts 143°
2026-05-07 16:06 43.78461 11.32082 34984 ft 476 kts 144°
2026-05-07 16:07 43.73634 11.38355 34989 ft 476 kts 144°
2026-05-07 16:07 43.68827 11.44586 34988 ft 476 kts 144°
2026-05-07 16:08 43.63993 11.50841 34968 ft 476 kts 144°
2026-05-07 16:08 43.59154 11.57087 34984 ft 477 kts 144°
2026-05-07 16:09 43.54305 11.63331 34982 ft 477 kts 144°
2026-05-07 16:09 43.49453 11.69565 34975 ft 476 kts 144°
2026-05-07 16:10 43.44597 11.75788 34980 ft 476 kts 144°
2026-05-07 16:10 43.39743 11.81997 34976 ft 476 kts 145°
2026-05-07 16:11 43.34910 11.88162 34977 ft 477 kts 145°
2026-05-07 16:11 43.30035 11.94367 34978 ft 477 kts 145°
2026-05-07 16:12 43.25159 12.00562 34973 ft 477 kts 145°
2026-05-07 16:12 43.20283 12.06741 34970 ft 477 kts 145°
2026-05-07 16:13 43.15422 12.12886 34974 ft 479 kts 146°
2026-05-07 16:13 43.10517 12.19070 34968 ft 480 kts 146°
2026-05-07 16:14 43.05604 12.25254 34964 ft 479 kts 146°
2026-05-07 16:14 43.00686 12.31430 34968 ft 480 kts 146°
2026-05-07 16:14 42.98220 12.34521 34786 ft 479 kts 146°
2026-05-07 16:15 42.95794 12.37560 34621 ft 480 kts 146°
2026-05-07 16:15 42.93326 12.40643 34784 ft 482 kts 146°
2026-05-07 16:15 42.90849 12.43736 34937 ft 483 kts 146°
2026-05-07 16:16 42.85885 12.49927 34950 ft 482 kts 146°
2026-05-07 16:16 42.80932 12.56093 34966 ft 482 kts 146°
2026-05-07 16:17 42.75986 12.62239 34965 ft 481 kts 146°
2026-05-07 16:17 42.71036 12.68372 34958 ft 482 kts 147°
2026-05-07 16:18 42.66055 12.74521 34979 ft 484 kts 147°
2026-05-07 16:18 42.61089 12.80639 34981 ft 485 kts 147°
2026-05-07 16:19 42.56081 12.86802 34980 ft 486 kts 147°
2026-05-07 16:19 42.51068 12.92962 34991 ft 486 kts 147°
2026-05-07 16:20 42.46044 12.99119 34992 ft 486 kts 147°
2026-05-07 16:20 42.41861 13.04226 34978 ft 486 kts 147°
2026-05-07 16:21 42.36022 13.11347 34983 ft 486 kts 147°
2026-05-07 16:21 42.31807 13.16474 34973 ft 486 kts 147°
2026-05-07 16:22 42.26808 13.22545 34974 ft 486 kts 147°
2026-05-07 16:22 42.21769 13.28648 34956 ft 488 kts 147°
2026-05-07 16:22 42.19235 13.31710 34673 ft 488 kts 147°
2026-05-07 16:23 42.16708 13.34773 34064 ft 490 kts 146°
2026-05-07 16:23 42.14193 13.37895 33351 ft 493 kts 146°
2026-05-07 16:23 42.11688 13.41061 32584 ft 495 kts 145°
2026-05-07 16:23 42.09181 13.44254 31819 ft 496 kts 145°
2026-05-07 16:24 42.06667 13.47458 31000 ft 499 kts 144°
2026-05-07 16:24 42.04131 13.50682 30188 ft 502 kts 144°
2026-05-07 16:24 42.01597 13.53897 29439 ft 500 kts 144°
2026-05-07 16:24 41.99059 13.57109 28587 ft 501 kts 144°
2026-05-07 16:25 41.96514 13.60319 27681 ft 502 kts 143°
2026-05-07 16:25 41.93964 13.63528 26789 ft 503 kts 143°
2026-05-07 16:25 41.91406 13.66743 25916 ft 504 kts 142°
2026-05-07 16:25 41.88838 13.69966 25044 ft 505 kts 142°
2026-05-07 16:26 41.86274 13.73181 24171 ft 505 kts 141°
2026-05-07 16:26 41.83704 13.76401 23405 ft 503 kts 141°
2026-05-07 16:26 41.81235 13.79503 23257 ft 482 kts 141°
2026-05-07 16:26 41.78839 13.82516 23247 ft 465 kts 141°
2026-05-07 16:27 41.76466 13.85485 23153 ft 470 kts 142°
2026-05-07 16:27 41.74052 13.88495 23105 ft 476 kts 141°
2026-05-07 16:27 41.71619 13.91518 23058 ft 477 kts 141°
2026-05-07 16:27 41.69190 13.94536 22988 ft 476 kts 141°
2026-05-07 16:28 41.66759 13.97553 22597 ft 479 kts 141°
2026-05-07 16:28 41.64302 14.00596 21769 ft 482 kts 141°
2026-05-07 16:28 41.61731 14.03459 20693 ft 479 kts 146°
2026-05-07 16:28 41.59127 14.06085 20100 ft 470 kts 147°
2026-05-07 16:29 41.56509 14.08671 19373 ft 464 kts 147°
2026-05-07 16:29 41.53915 14.11206 18717 ft 458 kts 147°
2026-05-07 16:29 41.51354 14.13697 17982 ft 452 kts 147°
2026-05-07 16:29 41.48829 14.16147 17178 ft 446 kts 147°
2026-05-07 16:30 41.46333 14.18566 16442 ft 440 kts 147°
2026-05-07 16:30 41.43870 14.20945 15744 ft 434 kts 147°
2026-05-07 16:30 41.41437 14.23292 15008 ft 429 kts 147°
2026-05-07 16:30 41.39061 14.25582 14324 ft 424 kts 147°
2026-05-07 16:31 41.36690 14.27865 13658 ft 418 kts 147°
2026-05-07 16:31 41.34354 14.30113 12987 ft 411 kts 147°
2026-05-07 16:31 41.32056 14.32322 12331 ft 404 kts 146°
2026-05-07 16:31 41.29797 14.34491 11708 ft 397 kts 146°
2026-05-07 16:32 41.27584 14.36615 11222 ft 387 kts 146°
2026-05-07 16:32 41.25425 14.38685 10779 ft 377 kts 146°
2026-05-07 16:32 41.23330 14.40693 10462 ft 364 kts 146°
2026-05-07 16:32 41.21312 14.42625 10244 ft 349 kts 145°
2026-05-07 16:33 41.19382 14.44472 10044 ft 336 kts 145°
2026-05-07 16:33 41.17526 14.46247 9871 ft 322 kts 145°
2026-05-07 16:33 41.15743 14.47950 9700 ft 309 kts 145°
2026-05-07 16:33 41.14036 14.49580 9526 ft 296 kts 145°
2026-05-07 16:34 41.12410 14.51132 9271 ft 289 kts 145°
2026-05-07 16:34 41.10782 14.52682 8832 ft 288 kts 145°
2026-05-07 16:34 41.09161 14.54226 8424 ft 285 kts 145°
2026-05-07 16:34 41.07552 14.55758 8019 ft 283 kts 144°
2026-05-07 16:35 41.05950 14.57257 7620 ft 281 kts 148°
2026-05-07 16:35 41.04142 14.58130 7225 ft 279 kts 175°
2026-05-07 16:35 41.02285 14.57590 6928 ft 275 kts 210°
2026-05-07 16:35 41.00965 14.55839 6783 ft 267 kts 234°
2026-05-07 16:36 41.00030 14.53771 6661 ft 257 kts 242°
2026-05-07 16:36 40.99249 14.51727 6618 ft 239 kts 239°
2026-05-07 16:36 40.98418 14.49908 6499 ft 224 kts 235°
2026-05-07 16:36 40.97601 14.48212 6316 ft 212 kts 236°
2026-05-07 16:37 40.96832 14.46582 6004 ft 208 kts 236°
2026-05-07 16:37 40.96073 14.44961 5522 ft 212 kts 237°
2026-05-07 16:37 40.95287 14.43279 5030 ft 217 kts 237°
2026-05-07 16:37 40.94483 14.41563 4535 ft 221 kts 237°
2026-05-07 16:38 40.93673 14.39841 4037 ft 218 kts 238°
2026-05-07 16:38 40.92874 14.38148 3532 ft 214 kts 238°
2026-05-07 16:38 40.92095 14.36495 3051 ft 210 kts 239°
2026-05-07 16:38 40.91352 14.34916 2601 ft 199 kts 239°
2026-05-07 16:39 40.90651 14.33418 1843 ft 202 kts 239°
2026-05-07 16:39 40.89876 14.31751 669 ft 220 kts 239°
2026-05-07 16:39 40.89104 14.30137 287 ft 197 kts 239°
2026-05-07 16:39 40.88458 14.28784 277 ft 131 kts 239°
2026-05-07 16:40 40.88154 14.28120 292 ft 47 kts 235°
2026-05-07 16:40 40.88020 14.28093 297 ft 11 kts 130°
2026-05-07 16:40 40.88021 14.28141 296 ft 5 kts 75°
2026-05-07 16:40 40.88029 14.28168 298 ft 3 kts 58°
2026-05-07 16:41 40.88052 14.28214 293 ft 9 kts 57°
2026-05-07 16:41 40.88064 14.28293 294 ft 10 kts 94°
2026-05-07 16:41 40.88056 14.28405 294 ft 14 kts 97°
2026-05-07 16:41 40.88021 14.28513 288 ft 10 kts 162°
2026-05-07 16:42 40.87973 14.28495 290 ft 5 kts 210°
2026-05-07 16:42 40.87958 14.28475 295 ft 3 kts 229°
2026-05-07 16:42 40.87947 14.28453 292 ft 2 kts 250°
2026-05-07 16:42 40.87942 14.28427 294 ft 3 kts 260°
2026-05-07 16:43 40.87940 14.28389 293 ft 5 kts 272°
2026-05-07 16:43 40.87945 14.28335 294 ft 8 kts 277°
2026-05-07 16:43 40.87953 14.28250 295 ft 11 kts 277°
2026-05-07 16:43 40.87958 14.28143 295 ft 11 kts 258°
2026-05-07 16:44 40.87925 14.28077 300 ft 5 kts 191°
2026-05-07 16:44 40.87904 14.28091 300 ft 5 kts 141°
2026-05-07 16:44 40.87872 14.28127 297 ft 5 kts 141°
2026-05-07 16:44 40.87867 14.28131 299 ft 0 kts 142°